Preview of NWS' New Version of Forecast
This preview is not operational and should not be used for support decisions.

Regional Weather Roundup (RWR)

Issued by National Weather Service (NWS)

                            
000
ASUS42 KTBW 220316
RWRFL 
FLORIDA REGIONAL WEATHER ROUNDUP
NATIONAL WEATHER SERVICE TAMPA BAY RUSKIN FL
1100 PM EDT TUE MAY 21 2019

NOTE: "FAIR" INDICATES FEW OR NO CLOUDS BELOW 12,000 FEET WITH NO
SIGNIFICANT WEATHER AND/OR OBSTRUCTIONS TO VISIBILITY.

FLZ001>010-012>015-112-114-115-220400-
PANHANDLE FLORIDA
  
CITY           SKY/WX    TMP DP  RH WIND       PRES   REMARKS
PENSACOLA      FAIR      75  72  90 S7        29.94R                  
PENSACOLA NAS  FAIR      77  72  84 SE12      29.94R                  
MILTON NAS     FAIR      71  69  93 S5        29.95R                  
CRESTVIEW      FAIR      68  63  84 S3        29.97R                  
DUKE FIELD     CLEAR     71  67  87 S5        29.95S                  
VALPARAISO     FAIR      76  70  81 S7        29.95R                  
MARY ESTHER    PTCLDY    77  70  79 CALM      29.94R                  
PANAMA CITY    FAIR      69  65  86 CALM      29.95S                  
TYNDALL AFB    FAIR      71  67  85 CALM      29.96R                  
APALACHICOLA   FAIR      72  63  73 CALM      29.96R                  

STATION/POSITION SKY/WX   TEMP    WIND        PRES    WAVE   SWELL
                          AIR SEA DIR/SP/G            HT/PER HT/PER
                          (F)     (DEG/KT/KT) (MB)    (FT/S) (FT/S)
30.1N   87.6W                                   N/A     2/ 5
29.2N   88.2W                     140/ 12/ 16 1013.8R   4/ 5   2/ 7
PANAMA CITY BEAC           79 82  210/  5/  5 1015.0R
TOWER C          NOT AVBL

$$
FLZ011-016>038-118-127-128-134-139-239-220400-
NORTH FLORIDA
  
CITY           SKY/WX    TMP DP  RH WIND       PRES   REMARKS
MARIANNA       FAIR      76  52  43 SW5       29.95R                  
TALLAHASSEE    FAIR      76  66  71 E3        29.97R                  
PERRY          MOCLDY    75  71  86 CALM      29.98R                  
LIVE OAK       PTCLDY    77  66  69 CALM      29.97R                  
CROSS CITY     FAIR      73  71  93 CALM      29.98R                  
LAKE CITY      CLOUDY    79  66  65 SE5       29.99R                  
GAINESVILLE    CLOUDY    80  68  66 CALM      30.02R                  
WILLISTON      FAIR      79  70  73 NE5       29.99R                  
PALATKA        FAIR     N/A N/A N/A SE6       30.00R                  
MAYPORT NAS    FAIR      79  70  74 S12       29.99R                  
JACKSONVILLE   FAIR      76  69  79 SE6       29.98R                  
JAX NAS        FAIR      81  68  64 SE10      30.00R                  
JAX CECIL      CLEAR     79  68  69 SE7       29.99R                  
FERNANDINA BEA FAIR      78  72  80 S8        29.99R                  
ST AUGUSTINE   FAIR      77  71  82 S10       30.01R                  
PALM COAST     FAIR      74  69  83 SE5       30.00S                  

STATION/POSITION SKY/WX   TEMP    WIND        PRES    WAVE   SWELL
                          AIR SEA DIR/SP/G            HT/PER HT/PER
                          (F)     (DEG/KT/KT) (MB)    (FT/S) (FT/S)
SHELL POINT      NOT AVBL
KEATON BEACH               78      70/  2/  3 1015.2R
CEDAR KEY                  81      10/  2/  2 1014.9R
FERNANDINA                        150/  8/ 11   N/A
30.7N   81.3W                 79                N/A     3/ 3
MAYPORT                       80  160/  5/ 10 1015.8R
31.4N   80.9W              78 78  180/ 12/ 16 1015.1R   2/ 4   2/ 7
ST AUGUSTINE               79 81  150/ 16/ 16 1016.2R

$$
FLZ040-043>046-052-053-057-058-063-144-220400-
INTERIOR CENTRAL FLORIDA
  
CITY           SKY/WX    TMP DP  RH WIND       PRES   REMARKS
OCALA          MOCLDY    81  69  67 E5        30.00R                  
LEESBURG       FAIR      80  67  64 SE14      30.01R                  
SANFORD        FAIR      78  69  73 SE8       30.01R                  
ORLANDO EXEC   FAIR      77  68  73 SE8       30.01R                  
ORLANDO INTL   FAIR      77  68  73 SE12      30.02R                  
KISSIMMEE      FAIR      78  70  76 SE7       30.03R                  
WINTER HAVEN   FAIR      80  68  66 SE14      30.02R                  
LAKELAND       MOCLDY    79  70  73 S5        30.01R                  
BARTOW         FAIR      79  68  69 E10       30.00R                  
SEBRING        FAIR      78  69  74 SE12      30.01R                  
OKEECHOBEE     FAIR      73  68  83 E5        30.01R                  

$$
FLZ041-047-054-059-064-141-147-220400-
EAST CENTRAL FLORIDA
  
CITY           SKY/WX    TMP DP  RH WIND       PRES   REMARKS
DAYTONA BEACH  FAIR      77  72  84 SE5       30.00R                  
DELAND         FAIR      75  68  78 SE7       30.01R                  
JFK SPACE CTR  FAIR      76  70  80 SE5       30.01R                  
CAPE CANAVERAL FAIR      76  61  59 SE9       30.00R                  
PATRICK AFB    FAIR      78  72  80 SE15      30.01R                  
MELBOURNE      FAIR      80  68  66 E10       30.01R                  
VERO BEACH     FAIR      77  67  71 SE9       30.02R                  
FT PIERCE      FAIR      78  66  66 E13       30.02R                  
STUART         FAIR      77  64  65 E10       30.03R                  

STATION/POSITION SKY/WX   TEMP    WIND        PRES    WAVE   SWELL
                          AIR SEA DIR/SP/G            HT/PER HT/PER
                          (F)     (DEG/KT/KT) (MB)    (FT/S) (FT/S)
28.5N   80.2W              80     120/ 12/ 16 1016.6
28.9N   78.5W              78 80  110/ 10/ 12 1017.7
TRIDENT PIER               78 83  110/  8/ 13 1017.6R
28.4N   80.5W                 80                N/A     2/ 3
27.5N   80.2W                 79                N/A     2/ 3

$$
FLZ050-056-061-142-242-148-248-149-249-151-251-155-255-
160-260-220400-
WEST CENTRAL FLORIDA
  
CITY           SKY/WX    TMP DP  RH WIND       PRES   REMARKS
CRYSTAL RIVER  FAIR      73  72  94 CALM      29.98R                  
INVERNESS      FAIR      77  75  94 CALM      30.00R                  
BROOKSVILLE    FAIR      76  71  85 E6        29.99R                  
CLEARWATER AIR FAIR      79  72  78 CALM      29.97R                  
ST PETE CLEARW FAIR      79  72  79 CALM      29.97R                  
TAMPA INTL     FAIR      82  73  74 NW3       29.98R                  
TAMPA EXEC     FAIR      73  70  88 SE5       30.00R                  
PLANT CITY     CLOUDY    81  72  74 SE8       30.02R                  
MACDILL AFB    FAIR      77  72  84 CALM      29.97R                  
PETER O KNIGHT FAIR      82  73  74 CALM      29.98R                  
ST PETERSBURG    N/A    N/A N/A N/A MISG      29.96R                  
SARASOTA       MOCLDY    80  72  76 N3        29.95R                  
VENICE         MOCLDY    81  73  78 CALM      29.98R                  

STATION/POSITION SKY/WX   TEMP    WIND        PRES    WAVE   SWELL
                          AIR SEA DIR/SP/G            HT/PER HT/PER
                          (F)     (DEG/KT/KT) (MB)    (FT/S) (FT/S)
27.3N   84.2W                 81                N/A     1/ 8
CLEARWATER BEACH           81 85  280/  2/  3 1014.8R
MIDDLE TAMPA BAY           81     360/  3/  4 1014.9R
VENICE                     81 82   60/  3/  3 1014.9R

$$
FLZ066-069-070-075>078-162-262-165-265-220400-
SOUTHWEST FLORIDA AND KEYS
  
CITY           SKY/WX    TMP DP  RH WIND       PRES   REMARKS
PUNTA GORDA    FAIR      79  70  74 E9        30.00R                  
FT MYERS       LGT RAIN  75  71  87 SE14      29.99R                  
SOUTHWEST INTL LGT RAIN  75  70  84 CALM      30.00R                  
NAPLES         MOCLDY    81  72  74 E7        29.99R                  
MARCO ISLAND   MOCLDY    79  74  84 E7        30.00R                  
IMMOKALEE      CLOUDY    79  72  78 CALM      29.99R                  
MARATHON       FAIR      84  71  65 E9G17     29.98R                  
KEY WEST NAS   FAIR      83  72  69 E16       29.98R                  
KEY WEST INTL  FAIR      82  72  71 E14       29.98R                  

STATION/POSITION SKY/WX   TEMP    WIND        PRES    WAVE   SWELL
                          AIR SEA DIR/SP/G            HT/PER HT/PER
                          (F)     (DEG/KT/KT) (MB)    (FT/S) (FT/S)
NAPLES                     83 86              1015.4R
DRY TORTUGAS               82     100/ 10/ 11 1014.9R
SAND KEY                   81                 1014.9R
SOMBRERO KEY               81                 1014.5R

$$
FLZ067-068-071>074-168-172>174-220400-
SOUTHEAST FLORIDA 
  
CITY           SKY/WX    TMP DP  RH WIND       PRES   REMARKS
W PALM BEACH   FAIR      80  65  59 E14       30.02R                  
BOCA RATON     CLEAR     79  66  65 E10       30.01R                  
FT LAUDER-EXEC FAIR      80  66  62 E12       30.01R                  
FT LAUDERDALE  FAIR      80  67  64 E13       30.00R                  
POMPANO BEACH  FAIR      80  66  62 E10       30.01R                  
PEMBROKE PINES FAIR      79  67  66 E10       30.02R                  
OPA LOCKA      FAIR      79  67  66 E8        30.01R                  
MIAMI          FAIR      80  67  64 E10       30.01R                  
WEST KENDALL   FAIR      79  67  66 E10       30.00R                  
HOMESTEAD      FAIR      79  68  69 E7        30.00R                  

STATION/POSITION SKY/WX   TEMP    WIND        PRES    WAVE   SWELL
                          AIR SEA DIR/SP/G            HT/PER HT/PER
                          (F)     (DEG/KT/KT) (MB)    (FT/S) (FT/S)
PORT EVERGLADES            81      90/  6/ 12 1016.3
VIRGINIA KEY               81 85   70/ 11/ 13 1015.4R
LAKE WORTH                 79 82              1017.5R
SETTLEMENT POINT           79     100/  8/ 12 1017.1R

$$